Kokomo, IN

7:00 AM EST on February 13, 2016 (GMT -0500)
Kokomo Municipal

Weather History for KOKK - November, 2013

Change the Weather History Date:

Saturday, November 23, 2013

  Actual Average (KGUS) Record (KGUS)
Temperature  
Mean Temperature 24 °F -  
Max Temperature 30 °F 44 °F 68 °F (1999)
Min Temperature 19 °F 31 °F 17 °F (2008)
Degree Days  
Heating Degree Days 40    
Moisture  
Dew Point 19 °F    
Average Humidity 74    
Maximum Humidity 93    
Minimum Humidity 55    
Precipitation  
Precipitation 0.00 in - - ()
Sea Level Pressure  
Sea Level Pressure 30.45 in    
Wind  
Wind Speed 13 mph (NW)    
Max Wind Speed 26 mph    
Max Gust Speed 36 mph    
Visibility 10 miles    
Events      
Averages and records for this station are not official NWS values.
T = Trace of Precipitation, MM = Missing Value Source: NWS Daily Summary

Daily Weather History Graph

Daily Weather History Graph

Search for Another Location

Airport or City:

Trip Planner

Search our weather history database for the weather conditions in past years. The results will help you decide how hot, cold, wet, or windy it might be!

Date:

Astronomy

Nov. 23, 2013 Rise Set
Actual Time 6:40 AM CST 4:21 PM CST
Civil Twilight 6:10 AM CST 4:50 PM CST
Nautical Twilight 5:36 AM CST 5:24 PM CST
Astronomical Twilight 5:04 AM CST 5:57 PM CST
Moon 9:49 PM CST (11/23) 10:56 AM CST (11/23)
Length of Visible Light 10h 40m
Length of Day
9h 41m
Waning Gibbous, 69% of the Moon is Illuminated
Nov 23
Waning Gibbous
Nov 25
Last Quarter
Dec 2
New
Dec 9
First Quarter
Dec 17
Full

Hourly Weather History & Observations

Time (CST) Temp. Windchill Dew Point Humidity Pressure Visibility Wind Dir Wind Speed Gust Speed Precip Events Conditions
12:15 AM 28.4 °F 21.2 °F 26.6 °F 93% 30.41 in 10.0 mi WNW 6.9 mph - N/A   Clear
12:35 AM 28.4 °F 22.2 °F 24.8 °F 86% 30.40 in 10.0 mi NW 5.8 mph - N/A   Clear
12:55 AM 28.4 °F 20.4 °F 24.8 °F 86% 30.40 in 10.0 mi NW 8.1 mph - N/A   Clear
1:15 AM 30.2 °F 21.3 °F 26.6 °F 86% 30.40 in 10.0 mi NW 10.4 mph - N/A   Clear
1:35 AM 30.2 °F 20.8 °F 24.8 °F 80% 30.39 in 10.0 mi NW 11.5 mph - N/A   Clear
1:55 AM 30.2 °F 21.9 °F 26.6 °F 86% 30.39 in 10.0 mi NW 9.2 mph - N/A   Clear
2:15 AM 28.4 °F 19.7 °F 26.6 °F 93% 30.39 in 10.0 mi NW 9.2 mph - N/A   Clear
2:35 AM 28.4 °F 19.7 °F 24.8 °F 86% 30.39 in 10.0 mi WNW 9.2 mph - N/A   Clear
2:55 AM 28.4 °F 19.1 °F 26.6 °F 93% 30.38 in 10.0 mi WNW 10.4 mph - N/A   Clear
3:15 AM 28.4 °F 18.5 °F 24.8 °F 86% 30.37 in 10.0 mi NW 11.5 mph - N/A   Clear
3:35 AM 28.4 °F 18.5 °F 26.6 °F 93% 30.38 in 10.0 mi NW 11.5 mph - N/A   Clear
3:55 AM 28.4 °F 19.1 °F 24.8 °F 86% 30.38 in 10.0 mi WNW 10.4 mph - N/A   Clear
4:15 AM 28.4 °F 19.1 °F 24.8 °F 86% 30.37 in 10.0 mi WNW 10.4 mph - N/A   Clear
4:35 AM 28.4 °F 18.5 °F 24.8 °F 86% 30.37 in 10.0 mi WNW 11.5 mph - N/A   Clear
4:55 AM 28.4 °F 18.5 °F 23.0 °F 80% 30.38 in 10.0 mi WNW 11.5 mph - N/A   Clear
5:15 AM 26.6 °F 16.2 °F 21.2 °F 80% 30.38 in 10.0 mi NW 11.5 mph - N/A   Clear
5:35 AM 26.6 °F 16.8 °F 21.2 °F 80% 30.37 in 10.0 mi WNW 10.4 mph - N/A   Clear
5:55 AM 26.6 °F 16.8 °F 21.2 °F 80% 30.37 in 10.0 mi WNW 10.4 mph - N/A   Clear
6:15 AM 26.6 °F 16.8 °F 19.4 °F 74% 30.36 in 10.0 mi WNW 10.4 mph - N/A   Clear
6:35 AM 26.6 °F 15.2 °F 21.2 °F 80% 30.37 in 10.0 mi WNW 13.8 mph - N/A   Clear
6:55 AM 26.6 °F 14.7 °F 19.4 °F 74% 30.38 in 10.0 mi WNW 15.0 mph 18.4 mph N/A   Clear
7:15 AM 26.6 °F 16.2 °F 21.2 °F 80% 30.38 in 10.0 mi WNW 11.5 mph - N/A   Clear
7:35 AM 26.6 °F 15.2 °F 19.4 °F 74% 30.38 in 10.0 mi NW 13.8 mph - N/A   Clear
7:55 AM 26.6 °F 14.3 °F 19.4 °F 74% 30.39 in 10.0 mi NW 16.1 mph 19.6 mph N/A   Clear
8:15 AM 26.6 °F 13.8 °F 19.4 °F 74% 30.40 in 10.0 mi WNW 17.3 mph - N/A   Clear
8:35 AM 26.6 °F 14.7 °F 21.2 °F 80% 30.41 in 10.0 mi NW 15.0 mph - N/A   Clear
8:55 AM 28.4 °F 15.8 °F 21.2 °F 74% 30.41 in 10.0 mi NW 18.4 mph 23.0 mph N/A   Clear
9:15 AM 28.4 °F 16.2 °F 21.2 °F 74% 30.41 in 10.0 mi NW 17.3 mph - N/A   Clear
9:35 AM 28.4 °F 17.0 °F 21.2 °F 74% 30.41 in 10.0 mi NW 15.0 mph 19.6 mph N/A   Partly Cloudy
9:55 AM 30.2 °F 18.9 °F 23.0 °F 75% 30.41 in 10.0 mi NW 16.1 mph 21.9 mph N/A   Partly Cloudy
10:15 AM 30.2 °F 18.9 °F 23.0 °F 75% 30.42 in 10.0 mi NW 16.1 mph 21.9 mph N/A   Mostly Cloudy
10:35 AM 30.2 °F 17.1 °F 21.2 °F 69% 30.41 in 10.0 mi NW 21.9 mph - N/A   Mostly Cloudy
10:55 AM 30.2 °F 17.4 °F 21.2 °F 69% 30.41 in 10.0 mi NW 20.7 mph 25.3 mph N/A   Overcast
11:15 AM 30.2 °F 17.1 °F 21.2 °F 69% 30.41 in 10.0 mi NW 21.9 mph 25.3 mph N/A   Overcast
11:35 AM 30.2 °F 18.9 °F 19.4 °F 64% 30.41 in 10.0 mi NW 16.1 mph 29.9 mph N/A   Overcast
11:55 AM 30.2 °F 17.8 °F 19.4 °F 64% 30.40 in 10.0 mi NNW 19.6 mph 26.5 mph N/A   Overcast
12:15 PM 28.4 °F 13.8 °F 17.6 °F 64% 30.41 in 10.0 mi NNW 25.3 mph 29.9 mph N/A   Overcast
12:35 PM 28.4 °F 14.1 °F 17.6 °F 64% 30.41 in 10.0 mi NW 24.2 mph 31.1 mph N/A   Mostly Cloudy
12:55 PM 28.4 °F 14.1 °F 17.6 °F 64% 30.42 in 10.0 mi NNW 24.2 mph 33.4 mph N/A   Mostly Cloudy
1:15 PM 28.4 °F 14.1 °F 17.6 °F 64% 30.42 in 10.0 mi NNW 24.2 mph 29.9 mph N/A   Overcast
1:35 PM 28.4 °F 13.5 °F 17.6 °F 64% 30.43 in 10.0 mi NNW 26.5 mph 35.7 mph N/A   Overcast
1:55 PM 28.4 °F 15.1 °F 14.0 °F 55% 30.43 in 10.0 mi NNW 20.7 mph 31.1 mph N/A   Scattered Clouds
2:15 PM 28.4 °F 13.5 °F 15.8 °F 59% 30.44 in 10.0 mi NW 26.5 mph 31.1 mph N/A   Mostly Cloudy
2:35 PM 26.6 °F 13.8 °F 12.2 °F 55% 30.45 in 10.0 mi NNW 17.3 mph 27.6 mph N/A   Mostly Cloudy
2:55 PM 28.4 °F 14.7 °F 14.0 °F 55% 30.46 in 10.0 mi NNW 21.9 mph 28.8 mph N/A   Mostly Cloudy
3:15 PM 26.6 °F 14.3 °F 12.2 °F 55% 30.47 in 10.0 mi NNW 16.1 mph 27.6 mph N/A   Mostly Cloudy
3:35 PM 26.6 °F 12.7 °F 15.8 °F 64% 30.48 in 10.0 mi NNW 20.7 mph 28.8 mph N/A   Mostly Cloudy
3:55 PM 24.8 °F 10.3 °F 14.0 °F 64% 30.49 in 10.0 mi NNW 20.7 mph 32.2 mph N/A   Overcast
4:15 PM 24.8 °F 9.6 °F 17.6 °F 74% 30.49 in 10.0 mi NW 23.0 mph - N/A   Overcast
4:35 PM 24.8 °F 8.7 °F 15.8 °F 69% 30.50 in 10.0 mi NNW 26.5 mph 31.1 mph N/A   Overcast
4:55 PM 24.8 °F 10.3 °F 14.0 °F 64% 30.51 in 10.0 mi NNW 20.7 mph 25.3 mph N/A   Overcast
5:15 PM 24.8 °F 10.0 °F 15.8 °F 69% 30.52 in 10.0 mi NNW 21.9 mph - N/A   Mostly Cloudy
5:35 PM 24.8 °F 11.5 °F 15.8 °F 69% 30.53 in 10.0 mi NNW 17.3 mph 25.3 mph N/A   Overcast
5:55 PM 23.0 °F 9.6 °F 15.8 °F 74% 30.53 in 10.0 mi NNW 16.1 mph 20.7 mph N/A   Overcast
6:15 PM 23.0 °F 12.4 °F 15.8 °F 74% 30.54 in 10.0 mi NNW 10.4 mph - N/A   Overcast
6:35 PM 23.0 °F 12.4 °F 15.8 °F 74% 30.55 in 10.0 mi NNW 10.4 mph 20.7 mph N/A   Overcast
6:55 PM 23.0 °F 10.6 °F 15.8 °F 74% 30.55 in 10.0 mi NNW 13.8 mph 19.6 mph N/A   Mostly Cloudy
7:15 PM 23.0 °F 11.7 °F 15.8 °F 74% 30.55 in 10.0 mi NNW 11.5 mph - N/A   Mostly Cloudy
7:35 PM 23.0 °F 9.2 °F 14.0 °F 68% 30.56 in 10.0 mi NNW 17.3 mph - N/A   Overcast
7:55 PM 23.0 °F 10.6 °F 14.0 °F 68% 30.57 in 10.0 mi NNW 13.8 mph 18.4 mph N/A   Overcast
8:15 PM 23.0 °F 9.6 °F 15.8 °F 74% 30.56 in 10.0 mi NNW 16.1 mph 20.7 mph N/A   Overcast
8:35 PM 21.2 °F 7.8 °F 15.8 °F 80% 30.56 in 10.0 mi NNW 15.0 mph 19.6 mph N/A   Mostly Cloudy
8:55 PM 23.0 °F 9.6 °F 15.8 °F 74% 30.57 in 10.0 mi NNW 16.1 mph 20.7 mph N/A   Overcast
9:15 PM 21.2 °F 7.8 °F 15.8 °F 80% 30.56 in 10.0 mi North 15.0 mph 19.6 mph N/A   Overcast
9:35 PM 21.2 °F 7.8 °F 17.6 °F 86% 30.56 in 10.0 mi NNW 15.0 mph - N/A   Overcast
9:55 PM 23.0 °F 11.1 °F 15.8 °F 74% 30.57 in 10.0 mi NNW 12.7 mph 20.7 mph N/A   Overcast
10:15 PM 23.0 °F 12.4 °F 14.0 °F 68% 30.57 in 10.0 mi NNW 10.4 mph - N/A   Overcast
10:35 PM 23.0 °F 9.6 °F 15.8 °F 74% 30.57 in 10.0 mi NW 16.1 mph - N/A   Overcast
10:55 PM 21.2 °F 7.8 °F 14.0 °F 74% 30.58 in 10.0 mi WNW 15.0 mph - N/A   Overcast
11:15 PM 21.2 °F 8.3 °F 14.0 °F 74% 30.59 in 10.0 mi NW 13.8 mph - N/A   Mostly Cloudy
11:35 PM 19.4 °F 6.6 °F 12.2 °F 74% 30.58 in 10.0 mi NW 12.7 mph - N/A   Mostly Cloudy
11:55 PM 19.4 °F 5.0 °F 12.2 °F 74% 30.58 in 10.0 mi NW 16.1 mph - N/A   Mostly Cloudy